User: anonymous   Login
Location: Waning Moon II Observatory
(30.3730°N, 89.7620°W)
Time: 18:51:53
(UTC-06:00)
Language:

Cosmos 1825 Rocket - Orbit

View from above orbital plane
View from above orbital plane
View from above satellite
View from above satellite

Ground track
Ground track

The orbit data is extracted from the following two-line orbital elements,

1 17567U 87024B   18053.19519940  .00000060  00000-0  43371-5 0  9991
2 17567  82.5315 325.0362 0017848 239.2899 120.6558 14.83689301673537
Epoch (UTC): 22 February 2018 04:41:05
Eccentricity: 0.0017848
inclination: 82.5315°
perigee height: 605 km
apogee height: 630 km
right ascension of ascending node: 325.0362°
argument of perigee: 239.2899°
revolutions per day: 14.83689301
mean anomaly at epoch: 120.6558°
orbit number at epoch: 67353

The dashed part of the orbit path shows where the satellite is in the earth's shadow,  

DLR